Weather History for PAOH - September, 2013

Change the Weather History Date:

Monday, September 9, 2013

  Actual Average Record
Temperature  
Mean Temperature 51 °F -  
Max Temperature 61 °F 54 °F 68 °F (2007)
Min Temperature 41 °F 43 °F 28 °F (2004)
Degree Days  
Heating Degree Days 14    
Growing Degree Days 1 (Base 50)    
Moisture  
Dew Point 48 °F    
Average Humidity 86    
Maximum Humidity 100    
Minimum Humidity 58    
Precipitation  
Precipitation 0.00 in - - ()
Sea Level Pressure  
Sea Level Pressure 30.15 in    
Wind  
Wind Speed 2 mph (ESE)    
Max Wind Speed 8 mph    
Max Gust Speed -    
Visibility 9 miles    
Events Rain    
Averages and records for this station are not official NWS values.
T = Trace of Precipitation, MM = Missing Value Source: NWS Daily Summary

Daily Weather History Graph

Daily Weather History Graph

Search for Another Location

Airport or City:

Trip Planner

Search our weather history database for the weather conditions in past years. The results will help you decide how hot, cold, wet, or windy it might be!

Date:

Astronomy

Sep. 09, 2013 Rise Set
Actual Time 6:19 AM AKDT 7:36 PM AKDT
Civil Twilight 5:38 AM AKDT 8:17 PM AKDT
Nautical Twilight 4:48 AM AKDT 9:07 PM AKDT
Astronomical Twilight 3:50 AM AKDT 10:04 PM AKDT
Moon 11:58 AM AKDT (9/9) 8:46 PM AKDT (9/9)
Length of Visible Light 14h 38m
Length of Day
13h 17m
Waxing Crescent, 20% of the Moon is Illuminated
Sep 9
Waxing Crescent
Sep 12
First Quarter
Sep 19
Full
Sep 26
Last Quarter
Oct 4
New

Hourly Weather History & Observations

Time (AKDT) Temp. Windchill Dew Point Humidity Pressure Visibility Wind Dir Wind Speed Gust Speed Precip Events Conditions
12:56 AM 46.9 °F - 46.9 °F 100% 30.16 in 8.0 mi Calm Calm - N/A   Partly Cloudy
1:56 AM 45.0 °F 42.6 °F 45.0 °F 100% 30.17 in 6.0 mi East 4.6 mph - N/A   Clear
2:56 AM 43.9 °F - 43.9 °F 100% 30.17 in 6.0 mi Calm Calm - N/A   Scattered Clouds
3:56 AM 45.0 °F - 45.0 °F 100% 30.17 in 7.0 mi Calm Calm - N/A   Mostly Cloudy
4:56 AM 45.0 °F - 45.0 °F 100% 30.16 in 7.0 mi Calm Calm - N/A   Scattered Clouds
5:56 AM 41.9 °F - 41.9 °F 100% 30.16 in 7.0 mi Calm Calm - N/A   Clear
6:56 AM 43.9 °F - 43.9 °F 100% 30.16 in 6.0 mi Calm Calm - N/A   Mostly Cloudy
7:56 AM 45.9 °F - 45.9 °F 100% 30.16 in 8.0 mi Calm Calm - N/A   Clear
8:56 AM 50.0 °F - 48.9 °F 96% 30.16 in 9.0 mi Calm Calm - N/A   Clear
9:56 AM 54.0 °F - 50.9 °F 89% 30.17 in 9.0 mi WSW 4.6 mph - N/A   Clear
10:56 AM 57.9 °F - 50.0 °F 75% 30.15 in 10.0 mi WSW 3.5 mph - N/A   Clear
11:56 AM 59.0 °F - 50.0 °F 72% 30.15 in 10.0 mi Variable 4.6 mph - N/A   Clear
12:56 PM 59.9 °F - 48.9 °F 67% 30.14 in 10.0 mi East 6.9 mph - N/A   Clear
1:56 PM 61.0 °F - 47.8 °F 62% 30.15 in 10.0 mi East 4.6 mph - N/A   Clear
2:56 PM 61.0 °F - 45.9 °F 58% 30.14 in 10.0 mi East 6.9 mph - N/A   Scattered Clouds
3:56 PM 59.9 °F - 46.9 °F 62% 30.14 in 10.0 mi East 8.1 mph - N/A   Scattered Clouds
4:56 PM 61.0 °F - 47.8 °F 62% 30.14 in 10.0 mi ESE 3.5 mph - 0.00 in   Mostly Cloudy
5:56 PM 59.9 °F - 48.9 °F 67% 30.13 in 10.0 mi Calm Calm - 0.00 in   Clear
6:56 PM 55.9 °F - 50.0 °F 80% 30.14 in 10.0 mi East 3.5 mph - 0.00 in Rain Light Rain
7:56 PM 54.0 °F - 50.0 °F 86% 30.14 in 10.0 mi Calm Calm - 0.00 in   Overcast
8:56 PM 52.0 °F - 50.0 °F 93% 30.14 in 10.0 mi Calm Calm - N/A   Mostly Cloudy
9:56 PM 50.9 °F - 50.0 °F 97% 30.14 in 10.0 mi Calm Calm - N/A   Clear
10:56 PM 50.9 °F - 48.9 °F 93% 30.14 in 10.0 mi Calm Calm - N/A   Clear
11:56 PM 50.0 °F - 48.9 °F 96% 30.13 in 9.0 mi Calm Calm - N/A   Clear